[[{"header":{"parameterUnit":"m.s-1","parameterCategory":1,"la1":30.2991,"la2":30.254,"lo1":-89.0895,"lo2":-89.0444,"dx":0.0017,"dy":0.0017,"nx":28,"ny":28,"refTime":"2022-12-09T15:00:00:Z","depth":0,"parameterNumber":2,"parameterNumberName":"U-component_of_WINDS"},"data":[0,0,0,0,0,0,0,0,0,0,0,0,0,0,0,0,0,0,0,0,0,0,0,0,0,0,0,0,0,0,0,0,0,0,0,0,0,0,0,0,0,0,0,0,0,0,0,0,0,0,0,0,0,0,0,0,0,0,1.9388,1.9388,0,1.9404,1.9404,1.9404,1.9353,1.9352,1.935,1.9349,1.9365,1.9367,1.9369,0,0,0,0,0,0,0,0,0,0,0,0,0,1.9314,1.9316,1.9388,1.9388,1.9388,1.9404,1.9404,1.9404,1.9354,1.9352,1.935,1.9348,1.9364,1.9367,1.9369,0,0,0,0,0,0,0,0,0,0,0,0,0,1.934,1.9316,1.9388,1.9365,1.9363,1.9404,1.9404,1.9404,1.9354,1.9352,1.9349,1.9347,1.9364,1.9366,1.9369,1.9433,0,0,1.9378,1.9379,0,0,0,0,0,0,0,0,1.9338,1.9343,1.9368,1.9366,1.9364,1.9374,1.9384,1.9414,1.9355,1.9357,1.9349,1.9346,1.937,1.9372,1.938,1.9434,1.9435,1.9378,1.938,1.9381,1.9382,0,0,0,0,0,0,0,1.9337,1.9342,1.9394,1.9368,1.9366,1.9354,1.9355,1.939,1.9376,1.9357,1.9353,1.9356,1.9368,1.9378,1.938,1.9435,1.9378,1.938,1.9382,1.9383,1.9544,1.9546,0,0,0,0,0,0,1.9338,1.934,1.9394,1.9395,1.9345,1.9357,1.9358,1.9373,1.9376,1.9374,1.9358,1.9353,1.9374,1.9377,1.9381,1.9457,1.9381,1.9384,1.9385,1.9541,1.9544,1.9547,0,0,0,0,0,0,1.9336,1.9343,1.9393,1.9367,1.9372,1.9361,1.9378,1.9375,1.9384,1.9377,1.9374,1.9369,1.9372,1.9377,1.9421,1.9456,1.9385,1.9387,1.9538,1.9542,1.9546,1.9609,0,0,0,0,0,0,1.9335,1.9343,1.9367,1.9367,1.9374,1.9433,1.938,1.9377,1.9389,1.9383,1.9387,1.9385,1.9371,1.9417,1.9424,1.9459,1.939,1.9535,1.954,1.9545,1.9603,1.9614,1.9623,0,0,0,0,0,1.9332,1.9383,1.9368,1.9375,1.9403,1.9435,1.9438,1.9421,1.9392,1.9416,1.9412,1.9385,1.9452,1.9422,1.9429,1.9466,1.9533,1.9539,1.9544,1.9599,1.9612,1.9623,0,0,0,0,0,0,1.9386,1.9383,1.9366,1.9419,1.9428,1.9426,1.9456,1.9435,1.9452,1.9446,1.9423,1.9425,1.9473,1.9474,1.9441,1.9529,1.9487,1.9495,1.9526,1.9539,1.9549,1.9547,1.9392,0,0,0,0,0,1.9404,1.943,1.9426,1.9473,1.9478,1.9467,1.948,1.9466,1.9474,1.9477,1.9476,1.9485,1.9508,1.9524,1.9544,1.9604,1.9604,1.9633,1.9643,1.9651,1.9657,1.969,1.9703,1.9566,1.9566,1.9566,0,0,1.9441,1.9443,1.946,1.9484,1.9489,1.9517,1.947,1.9501,1.9522,1.9482,1.9524,1.9524,1.9532,1.9585,1.9608,1.9587,1.9696,1.9658,1.9665,1.9667,1.9697,1.971,1.9722,1.957,1.9569,1.9569,0,0,1.9524,1.9527,1.9568,1.9574,1.9583,1.9575,1.9585,1.9588,1.9586,1.9628,1.9599,1.9624,1.9664,1.9672,1.9681,1.9769,1.9746,1.9777,1.9829,1.9861,1.9872,1.9881,1.9913,1.9925,1.9783,1.9784,1.9784,0,1.9569,1.9609,1.9591,1.9625,1.9636,1.9603,1.9644,1.9651,1.9666,1.9675,1.9652,1.9702,1.9706,1.976,1.9782,1.9791,1.9802,1.9776,1.9872,1.9881,1.989,1.992,1.9932,1.9787,1.9787,1.9787,1.9786,0,1.9665,1.9694,1.9726,1.9742,1.9757,1.9795,1.9782,1.98,1.9786,1.9781,1.9825,1.9828,1.9849,1.9862,1.9847,1.9915,1.9902,1.9876,1.9833,1.9907,1.9935,1.9946,1.9793,1.9791,1.979,1.9789,0,0,1.978,1.9787,1.9799,1.9807,1.9815,1.9837,1.9874,1.9896,1.9912,1.9924,1.9954,1.999,1.9967,1.9977,1.9964,1.9992,2.0063,1.9963,1.9963,1.9981,2.0139,2.0158,2.0172,2.0048,2.005,2.0052,2.0138,0,1.9861,1.9924,1.9909,1.9971,1.9998,1.9968,2.0,2.0009,2.0006,2.0029,2.0026,2.0052,2.0018,2.0025,2.0052,2.0049,2.0094,2.0043,2.0076,2.0078,2.0074,2.0186,2.0206,2.0287,2.0149,2.0151,2.0152,0,1.9964,1.9981,2.0046,2.0052,2.0063,2.0092,2.0111,2.0134,2.0144,2.014,2.0153,2.0135,2.0172,2.013,2.0181,2.0146,2.016,2.0161,2.0164,2.0165,2.0119,2.0191,2.0312,2.0324,2.0169,2.0168,2.0166,0,2.0042,2.0081,2.0125,2.0133,2.0141,2.0162,2.0166,2.0174,2.0189,2.0206,2.0216,2.0237,2.0249,2.0266,2.0254,2.0225,2.0308,2.0265,2.0306,2.0306,2.0323,2.0322,2.0448,2.0333,2.0333,2.0333,2.0332,0,2.0134,2.0175,2.0161,2.0188,2.0233,2.0217,2.0262,2.0263,2.0271,2.0298,2.0274,2.03,2.0283,2.0308,2.0299,2.0343,2.0349,2.0347,2.0344,2.0349,2.0349,2.0356,2.035,2.0336,2.0335,2.0335,2.0334,0,2.0227,2.022,2.0266,2.027,2.0273,2.0306,2.031,2.0335,2.0332,2.0367,2.0374,2.0368,2.0396,2.0387,2.0417,2.0411,2.0467,2.0457,2.0464,2.0461,2.0502,2.0498,2.0637,2.0654,2.0528,2.053,2.0531,0,2.0286,2.0317,2.0326,2.0342,2.0349,2.0376,2.0391,2.0377,2.0394,2.0409,2.0433,2.046,2.048,2.0527,2.0525,2.0549,2.0539,2.0586,2.0542,2.0547,2.054,2.0538,2.0541,2.0594,2.0596,2.0597,2.0598,0,2.0392,2.0387,2.041,2.0432,2.0451,2.0468,2.0482,2.0498,2.0485,2.0505,2.0534,2.055,2.0582,2.0609,2.063,2.0635,2.0615,2.0612,2.0623,2.0627,2.063,2.0629,2.0487,2.0609,2.0608,2.0607,2.0606,2.0606,2.047,2.0497,2.0507,2.0534,2.0544,2.0558,2.0583,2.0583,2.0607,2.0632,2.0623,2.0656,2.0668,2.0695,2.0703,2.0729,2.0711,2.0726,2.073,2.0734,2.0739,2.0627,2.0733,2.0733,2.0732,2.0732,2.0732,0,2.0575,2.058,2.0605,2.0627,2.0648,2.0629,2.0644,2.0663,2.0693,2.0706,2.0727,2.0761,2.0787,2.0789,2.0814,2.0835,2.0826,2.0842,2.0839,2.0841,2.0754,2.0742,2.0848,2.0848,2.0848,2.0848,2.0848,2.0848,2.0631,2.0676,2.0673,2.0722,2.0727,2.0761,2.0771,2.0785,2.0795,2.0834,2.0856,2.0858,2.0866,2.0891,2.0915,2.0915,2.0925,2.0944,2.094,2.0859,2.0847,2.0836,2.0825,2.0947,2.0947,2.1025,2.1026,2.1027]},{"header":{"parameterUnit":"m.s-1","parameterCategory":1,"la1":30.2991,"la2":30.254,"lo1":-89.0895,"lo2":-89.0444,"dx":0.0017,"dy":0.0017,"nx":28,"ny":28,"refTime":"2022-12-09T15:00:00:Z","depth":0,"parameterNumber":3,"parameterNumberName":"V-component_of_WINDS"},"data":[0,0,0,0,0,0,0,0,0,0,0,0,0,0,0,0,0,0,0,0,0,0,0,0,0,0,0,0,0,0,0,0,0,0,0,0,0,0,0,0,0,0,0,0,0,0,0,0,0,0,0,0,0,0,0,0,0,0,1.4779,1.4781,0,1.4926,1.4927,1.4929,1.4951,1.495,1.4948,1.4947,1.5093,1.5098,1.5103,0,0,0,0,0,0,0,0,0,0,0,0,0,1.451,1.4515,1.4779,1.4781,1.4783,1.4925,1.4927,1.4929,1.4951,1.495,1.4948,1.4946,1.5092,1.5098,1.5104,0,0,0,0,0,0,0,0,0,0,0,0,0,1.4638,1.4516,1.4779,1.4811,1.4815,1.4925,1.4927,1.493,1.4951,1.495,1.4948,1.4946,1.509,1.5097,1.5105,1.5191,0,0,1.5128,1.5131,0,0,0,0,0,0,0,0,1.4631,1.4648,1.4804,1.4809,1.4814,1.4918,1.4886,1.5017,1.4952,1.49,1.4947,1.4945,1.5036,1.5048,1.508,1.5198,1.5204,1.5129,1.5133,1.5137,1.5139,0,0,0,0,0,0,0,1.4622,1.4642,1.4837,1.4806,1.4812,1.4815,1.4831,1.4911,1.4977,1.4904,1.4906,1.4923,1.5039,1.5072,1.5084,1.5207,1.5129,1.5135,1.514,1.5143,1.5397,1.5399,0,0,0,0,0,0,1.4608,1.4635,1.4832,1.4841,1.4716,1.4822,1.484,1.4887,1.4976,1.4988,1.4925,1.4924,1.506,1.5075,1.5089,1.5193,1.5137,1.5144,1.5148,1.5395,1.5397,1.5399,0,0,0,0,0,0,1.4602,1.4626,1.4826,1.4739,1.4764,1.4828,1.4881,1.489,1.4925,1.4992,1.5003,1.4948,1.5059,1.5078,1.5165,1.5198,1.5147,1.5154,1.5392,1.5395,1.5398,1.5404,0,0,0,0,0,0,1.4595,1.4624,1.466,1.4739,1.4769,1.4902,1.4883,1.4895,1.4938,1.4938,1.5017,1.5028,1.5059,1.5153,1.5172,1.5208,1.516,1.5389,1.5394,1.5397,1.5401,1.5407,1.5412,0,0,0,0,0,1.4585,1.4656,1.4662,1.4685,1.4816,1.4904,1.4921,1.4957,1.4941,1.4976,1.5018,1.5025,1.5191,1.5162,1.5184,1.5222,1.5387,1.5392,1.5397,1.5399,1.5406,1.5412,0,0,0,0,0,0,1.4579,1.4667,1.4674,1.4774,1.4831,1.4908,1.4954,1.4964,1.5027,1.5025,1.5065,1.5082,1.5166,1.5202,1.5168,1.5307,1.5287,1.5297,1.5281,1.5289,1.5294,1.5283,1.5167,0,0,0,0,0,1.4589,1.4656,1.4728,1.4809,1.4837,1.489,1.493,1.4952,1.5013,1.5038,1.5087,1.5144,1.5208,1.525,1.5314,1.5405,1.542,1.5442,1.5447,1.5451,1.5459,1.5505,1.5515,1.5415,1.5415,1.5415,0,0,1.4611,1.4667,1.4707,1.4809,1.4856,1.4921,1.4911,1.4982,1.5029,1.5048,1.5133,1.517,1.5236,1.5324,1.5365,1.5357,1.5489,1.5458,1.546,1.5466,1.5511,1.5521,1.5529,1.5418,1.5418,1.5417,0,0,1.4684,1.4735,1.4805,1.4852,1.4923,1.4957,1.4973,1.5048,1.5073,1.5158,1.5172,1.5227,1.5339,1.5384,1.5422,1.5504,1.5512,1.5524,1.5553,1.5597,1.5605,1.5612,1.5639,1.5648,1.5531,1.5531,1.5531,0,1.4703,1.4804,1.484,1.4909,1.4951,1.497,1.5039,1.5082,1.517,1.5197,1.5186,1.5323,1.5369,1.5466,1.5485,1.5516,1.5533,1.5516,1.5601,1.5609,1.5616,1.5642,1.5652,1.5532,1.5532,1.5532,1.5532,0,1.482,1.489,1.4937,1.5021,1.5069,1.5137,1.518,1.5223,1.5239,1.5273,1.5356,1.5411,1.5483,1.5508,1.5525,1.5605,1.5597,1.5594,1.5574,1.5626,1.565,1.5661,1.5533,1.5533,1.5532,1.5532,0,0,1.4899,1.4998,1.5014,1.505,1.5127,1.518,1.5247,1.5318,1.5352,1.541,1.5465,1.5556,1.5551,1.5593,1.5615,1.5654,1.5711,1.5644,1.5646,1.5653,1.5799,1.5801,1.5812,1.5715,1.5718,1.5719,1.5792,0,1.498,1.5102,1.5133,1.5236,1.5298,1.5313,1.537,1.5422,1.5453,1.5507,1.5541,1.5604,1.5594,1.5619,1.5659,1.5696,1.5741,1.5691,1.5764,1.5767,1.5748,1.5826,1.583,1.5896,1.5802,1.5804,1.5805,0,1.5092,1.5151,1.526,1.5324,1.5351,1.5403,1.5467,1.552,1.5576,1.5596,1.564,1.5656,1.5722,1.5698,1.5787,1.5752,1.5783,1.5805,1.5808,1.5817,1.579,1.5835,1.5919,1.5928,1.5822,1.582,1.5819,0,1.5135,1.5242,1.532,1.535,1.5428,1.5463,1.5496,1.555,1.5589,1.5644,1.5669,1.5731,1.5765,1.5811,1.5841,1.5821,1.5926,1.5906,1.5942,1.5941,1.5965,1.5963,1.6054,1.5985,1.5985,1.5985,1.5985,0,1.5222,1.5288,1.534,1.5388,1.5459,1.5492,1.5561,1.5594,1.5641,1.5693,1.5709,1.5757,1.5795,1.5846,1.587,1.5938,1.5953,1.5968,1.5974,1.5967,1.5965,1.5988,1.5984,1.5987,1.5987,1.5986,1.5986,0,1.5284,1.5322,1.5407,1.5472,1.5489,1.5539,1.5592,1.5637,1.5667,1.5732,1.5748,1.5795,1.5855,1.589,1.5967,1.5982,1.6057,1.6061,1.6039,1.6041,1.6074,1.607,1.6184,1.6199,1.6121,1.6121,1.6122,0,1.5337,1.5388,1.5456,1.5492,1.5526,1.5585,1.5623,1.5655,1.5694,1.5759,1.5795,1.5856,1.5908,1.6003,1.6042,1.6099,1.6104,1.6139,1.6112,1.6102,1.6102,1.6098,1.6102,1.6144,1.6145,1.6145,1.6146,0,1.5427,1.5441,1.5498,1.5559,1.5605,1.5655,1.5704,1.5732,1.5771,1.5813,1.5876,1.5915,1.5992,1.6051,1.6111,1.6142,1.6149,1.6153,1.6164,1.6158,1.6142,1.6149,1.605,1.6151,1.615,1.615,1.615,1.6149,1.5485,1.5528,1.5583,1.5643,1.5683,1.5727,1.5771,1.5805,1.5858,1.5923,1.5937,1.6002,1.6051,1.6131,1.6163,1.6212,1.6205,1.6222,1.6226,1.6229,1.6229,1.6134,1.6223,1.6223,1.6222,1.6222,1.6222,0,1.5574,1.5608,1.5663,1.573,1.5776,1.5779,1.5832,1.587,1.5927,1.5972,1.6021,1.609,1.6146,1.6187,1.6244,1.6274,1.6279,1.6288,1.6286,1.6292,1.6233,1.6217,1.6283,1.6283,1.6283,1.6283,1.6283,1.6283,1.5625,1.5698,1.5718,1.5808,1.5841,1.5906,1.5935,1.5974,1.601,1.6086,1.6133,1.6159,1.6201,1.626,1.631,1.632,1.634,1.6348,1.6359,1.6303,1.6297,1.6291,1.6276,1.6353,1.6353,1.6413,1.6414,1.6414]}]]